Погода в Дерби

Великобритания     52°55′29″N   1°29′01″W
темп.,
°C
ветер,
м/с
пор.,
м/с
влажн.,
%
обл.,
%
осадки,
мм/ч
давл.,
гПа
погр.,
м
19 апреля, пн
пн1901:00+3всв11875 0.0 102510
04:00+2всв11853 0.0 102410
07:00+3св11814 0.0 102410
10:00+9вюв22600 0.0 1023450
13:00+12юв23490 0.0 10221015
16:00+13ююв23525 0.0 10201342
19:00+12юв226869 0.0 102020
22:00+9вюв227798 0.0 102042
20 апреля, вт
вт2001:00+7в118198 0.0 102024
04:00+6всв118551 0.0 102011
07:00+6всв118757 0.0 102015
10:00+10вюв1175100 0.0 1020211
13:00+12зсз1166100 0.2 1020393
16:00+14сз225698 0.0 10191046
19:00+12ссз227094 0.0 102043
22:00+8ссв2277100 0.0 102120
21 апреля, ср
ср2101:00+5св37936 0.0 1022142
04:00+4св379460 0.0 1022138
07:00+7св4892100 0.0 1023442
10:00+8всв677176 0.0 1024756
13:00+11всв445978 0.0 10241321
16:00+10всв5464100 0.0 1024958
19:00+8в357464 0.0 1025610
22:00+3в36858 0.0 1027117
22 апреля, чт
чт2201:00+1всв22885 0.0 102711
04:000ссв11875 0.0 102710
07:00+1ссв11805 0.0 102717
10:00+7юв22545 0.0 1027546
13:00+11юв33445 0.0 10271007
16:00+12юв23465 0.0 10261183
19:00+10юв34675 0.0 102689
22:00+4в22840 0.0 102711
23 апреля, пт
пт2301:00+2в11860 0.0 102710
04:00+1юв11900 0.0 102610
07:00+2всв11830 0.0 102620
10:00+8вюв465228 0.0 1026506
13:00+12вюв674846 0.0 1024996
16:00+13вюв675030 0.0 10221249
19:00+11вюв5967100 0.0 1021342
22:00+5всв4992100 0.0 1023183